User: anonymous
Location: Bowman Observatory
(41.0326°N, 73.6210°W)
Time: 08:00:52
(UTC-04:00)
Language:

Cosmos 2297 - Orbit

View from above orbital plane
View from above orbital plane
View from above satellite
View from above satellite

Ground track
Ground track

The orbit data is extracted from the following two-line orbital elements,

1 23404U 94077A   14109.47295341 -.00000029  00000-0  97908-5 0  7471
2 23404 071.0165 190.0261 0013059 101.7947 339.4967 14.13391606   916
Epoch (UTC): 19 April 2014 11:21:03
Eccentricity: 0.0013059
inclination: 71.0165°
perigee height: 838 km
apogee height: 857 km
right ascension of ascending node: 190.0261°
argument of perigee: 101.7947°
revolutions per day: 14.13391606
mean anomaly at epoch: 339.4967°
orbit number at epoch: 91

The dashed part of the orbit path shows where the satellite is in the earth's shadow,  

DLR